{"data":{"norad_id":62285,"epoch":"2026-05-25T01:38:06.717120Z","epoch_age_seconds":65693,"freshness":"FRESH","line1":"1 62285U 24237U   26145.06813330  .00012504  00000+0  46299-3 0  9997","line2":"2 62285  42.9990 144.9567 0001399 260.6856  99.3837 15.27590604 82872","mean_motion":15.27590604,"eccentricity":0.0001399,"inclination_deg":42.999,"raan_deg":144.9567,"arg_perigee_deg":260.6856,"mean_anomaly_deg":99.3837,"bstar":0.00046299,"rev_number":8287,"period_min":94.266094346833,"perigee_km":482.05746853983,"apogee_km":483.97721952529,"semimajor_km":6861.1543440326,"source":"CELESTRAK","updated_at":"2026-05-25T13:38:19.645730Z"}}